Tracking 18796 objects as of 20-September-2017
HD Live streaming from Space Station
objects crossing your sky now

OPS 0441

Track OPS 0441 now!
OPS 0441 is classified as:


NORAD ID: 14675
Int'l Code: 1984-009A
Perigee: 31,431.7 km
Apogee: 40,113.9 km
Inclination: 7.4 °
Period: 1,435.0 minutes
Semi major axis: 42143 km
RCS: Unknown
Launch date: January 31, 1984
Source: United States (US)
Launch site: AIR FORCE EASTERN TEST RANGE (AFETR)
aabbcc
Your satellite tracking list
Your tracking list is empty





NASA's NSSDC Master Catalog

Two Line Element Set (TLE):
1 14675U 84009A   17244.94245192 0.00000000  00000-0  00000-0 0    01
2 14675   7.4218 349.3887 1030060 351.0533   7.2641  1.00346558    01
Source of the keplerian elements: McCants